Location: Newark
(7.0858°N, 171.3717°E)
Time: 09:04:28
(UTC+00:00)

A-11 Canister half - Pass Details

Date: 07 August 2021
Orbit: 1526 x 1683 km, 47.3° (Epoch: 23 September)

Event Time Altitude Azimuth Distance (km) Brightness Sun altitude
Rises 08:45:25 0° 285° (WNW) 4,752 12.8 -27.4°
Reaches altitude 10° 08:50:07 10° 266° (W) 3,740 11.8 -28.5°
Maximum altitude 08:55:26 16° 231° (SW) 3,234 10.9 -29.7°
Drops below altitude 10° 09:00:44 10° 195° (SSW) 3,696 10.9 -30.9°
Enters shadow 09:02:52 - 185° (S) 4,099 11.1 -31.4°
